DW4596 Weather Reports


time (UTC)temp
F
wind
direction
speed
knots
gust
knots
rain 1hr
in
rain 24hr
in
rain mn
in
humidity
%
barometer
mb
20260509223051 61 174 7.0 0.0 0.00 0.00 0.00 66 1002.3
20260509221545 60 181 7.0 0.0 0.00 0.00 0.00 67 1002.1
20260509220043 60 134 5.2 0.0 0.00 0.00 0.00 68 1002.0
20260509213043 60 174 6.1 0.0 0.00 0.00 0.00 67 1002.2
20260509211541 60 180 7.0 0.0 0.00 0.00 0.00 65 1002.5
20260509210044 59 159 7.0 0.0 0.00 0.00 0.00 66 1002.7
20260509203051 59 184 7.8 0.0 0.00 0.00 0.00 66 1002.7
20260509201537 59 180 7.8 0.0 0.00 0.00 0.00 67 1003.2
20260509200037 58 201 8.7 0.0 0.00 0.00 0.00 68 1003.3
20260509193036 59 203 9.6 0.0 0.00 0.00 0.00 66 1003.5
20260509191534 59 207 8.7 0.0 0.00 0.00 0.00 65 1003.8
20260509190033 59 182 10.4 0.0 0.00 0.00 0.00 65 1003.7
20260509183029 59 190 9.6 0.0 0.00 0.00 0.00 62 1004.1
20260509181528 59 196 7.8 0.0 0.00 0.00 0.00 61 1004.3
20260509180030 58 200 6.1 0.0 0.00 0.00 0.00 64 1004.3
20260509173026 58 175 6.1 0.0 0.00 0.00 0.00 67 1004.6
20260509171523 57 182 7.0 0.0 0.00 0.00 0.00 67 1004.8
20260509170036 57 126 7.0 0.0 0.00 0.00 0.00 67 1004.9
20260509163025 57 176 6.1 0.0 0.00 0.00 0.00 66 1005.3
20260509161515 56 190 5.2 0.0 0.00 0.00 0.00 66 1005.5
20260509160013 56 190 7.0 0.0 0.00 0.00 0.00 66 1005.8
20260509153017 56 179 7.0 0.0 0.00 0.00 0.00 65 1006.4
20260509151510 56 237 7.0 0.0 0.00 0.00 0.00 64 1006.5
20260509150008 57 190 7.0 0.0 0.00 0.00 0.00 63 1006.6
20260509143012 56 155 4.3 0.0 0.00 0.00 0.00 56 1006.7
20260509141515 56 159 4.3 0.0 0.00 0.00 0.00 55 1006.8
20260509140006 56 173 2.6 0.0 0.00 0.00 0.00 54 1006.9
20260509133003 54 44 1.7 0.0 0.00 0.00 0.00 57 1007.1
20260509131505 54 126 4.3 0.0 0.00 0.00 0.00 53 1007.4
20260509130115 53 119 3.5 0.0 0.00 0.00 0.00 53 1007.3
20260509123101 52 134 1.7 0.0 0.00 0.00 0.00 53 1007.4
20260509121558 51 95 2.6 0.0 0.00 0.00 0.00 54 1007.6
20260509120059 50 54 0.9 0.0 0.00 0.00 0.00 57 1007.7
20260509113057 48 103 3.5 0.0 0.00 0.00 0.00 59 1007.7
20260509111604 47 136 2.6 0.0 0.00 0.00 0.00 59 1007.7
20260509110055 46 144 3.5 0.0 0.00 0.00 0.00 60 1007.7
20260509103106 45 151 4.3 0.0 0.00 0.00 0.00 62 1007.2
20260509101555 44 146 4.3 0.0 0.00 0.00 0.00 63 1007.1
20260509100053 44 155 4.3 0.0 0.00 0.00 0.00 65 1007.2
20260509093056 44 126 4.3 0.0 0.00 0.00 0.00 66 1007.1
20260509091552 44 146 3.5 0.0 0.00 0.00 0.00 67 1007.5
20260509090056 44 154 3.5 0.0 0.00 0.00 0.00 67 1007.6
20260509083052 44 147 4.3 0.0 0.00 0.00 0.00 66 1007.8
20260509081554 44 153 5.2 0.0 0.00 0.00 0.00 65 1007.9
20260509073052 45 174 7.8 0.0 0.00 0.00 0.00 62 1008.1
20260509071602 45 161 6.1 0.0 0.00 0.00 0.00 64 1008.2
20260509070053 44 156 5.2 0.0 0.00 0.00 0.00 66 1008.2
20260509063105 43 144 4.3 0.0 0.00 0.00 0.00 70 1008.4
20260509061611 43 153 2.6 0.0 0.00 0.00 0.00 71 1008.5
20260509060056 43 147 0.9 0.0 0.00 0.00 0.00 71 1008.7
20260509053045 44 153 2.6 0.0 0.00 0.00 0.00 71 1009.0
20260509051545 44 167 2.6 0.0 0.00 0.00 0.00 72 1009.0
20260509050043 44 163 2.6 0.0 0.00 0.00 0.00 72 1009.0
20260509043047 44 210 2.6 0.0 0.00 0.00 0.00 72 1009.2
20260509041545 45 219 4.3 0.0 0.00 0.00 0.00 72 1009.2
20260509040043 44 193 5.2 0.0 0.00 0.00 0.00 72 1009.2
20260509033044 44 219 2.6 0.0 0.00 0.00 0.00 73 1009.1
20260509031543 44 214 3.5 0.0 0.00 0.00 0.00 74 1009.1
20260509030047 44 207 3.5 0.0 0.00 0.00 0.00 75 1009.2
20260509023044 44 184 4.3 0.0 0.00 0.00 0.00 73 1009.4
20260509021543 44 186 3.5 0.0 0.00 0.00 0.00 73 1009.5
20260509020050 44 181 3.5 0.0 0.00 0.00 0.00 72 1009.5
20260509013042 45 199 4.3 0.0 0.00 0.00 0.00 71 1009.3
20260509011541 45 174 4.3 0.0 0.00 0.00 0.00 70 1009.2
20260509010039 46 188 4.3 0.0 0.00 0.00 0.00 69 1009.0
20260509003043 46 195 4.3 0.0 0.00 0.00 0.00 68 1008.7
20260509001538 47 199 6.1 0.0 0.00 0.00 0.00 66 1008.7
20260509000039 47 215 7.0 0.0 0.00 0.00 0.00 63 1008.6
20260508233041 48 197 7.0 0.0 0.00 0.00 0.00 62 1008.4
20260508231540 48 225 7.8 0.0 0.00 0.00 0.00 61 1008.5
20260508230039 48 207 8.7 0.0 0.00 0.00 0.00 62 1008.5